Temp
64 57 51 55 57 57 56 53 51 52 55 55 54 53 55 59 60 60 62 62 64 65 69 69 69 70 69 68 67 68 69 68 70 71 64 61 58 65 70 73 76 75 77 79
56 45 53 55 56 55 54 52 49 51 54 55 53 52 55 57 57 59 60 62 62 63 66 66 67 68 67 66 66 67 68 68 69 70 70 64 60 62 65 71 71 73 74 74
48 48 54 53 50 50 50 47 46 46 50 54 52 49 51 55 58 60 62 63 63 62 62 64 65 66 67 65 65 66 67 68 68 67 70 71 68 66 65 66 69 71 73 74
48 52 50 50 46 50 46 48 46 46 49 49 52 50 49 52 54 57 59 60 61 62 64 64 64 64 65 65 66 66 67 67 67 66 66 65 66 63 64 60 61 65 69 70
42 48 48 46 43 49 44 48 47 47 50 48 46 46 48 52 50 52 56 58 60 62 63 63 64 65 67 66 66 66 66 67 66 65 64 64 64 64 61 63 61 62 62 70
47 52 50 46 48 48 50 47 48 48 49 41 42 43 46 51 48 52 55 58 59 61 62 64 66 66 66 66 66 65 65 66 65 65 64 62 61 62 60 59 61 62 62 63
46 45 49 50 46 52 50 44 38 37 37 37 43 41 44 48 52 54 54 57 60 61 61 62 63 64 64 64 64 65 64 64 64 64 63 62 62 62 63 60 59 59 59 61
43 37 44 48 44 42 43 43 34 27 37 41 43 39 40 53 57 57 58 60 61 61 62 62 63 63 63 63 64 63 63 63 64 63 62 63 62 63 64 64 60 60 61 61
39 37 46 46 48 47 42 39 42 32 36 34 44 42 46 53 53 56 57 58 58 59 60 61 62 62 63 63 63 62 62 63 63 62 62 62 62 61 61 62 61 61 61 62
42 35 43 44 47 47 45 45 34 34 23 25 38 37 44 45 48 52 53 54 56 58 59 60 61 61 62 64 64 63 63 62 62 61 61 61 61 61 61 62 60 60 62 62
46 39 37 42 40 40 40 39 34 36 34 28 31 42 49 47 49 49 52 54 56 56 58 59 60 62 62 64 64 63 62 62 61 61 60 59 59 60 60 60 61 60 61 62
43 37 37 38 43 45 44 40 39 30 25 34 34 39 53 51 51 52 52 54 56 57 58 59 60 61 62 62 62 62 61 61 61 61 60 58 58 59 58 59 59 60 59 60
45 37 30 35 38 40 35 35 30 30 35 32 28 40 53 52 52 53 53 54 56 57 58 59 59 59 60 61 61 61 61 61 61 61 59 58 57 57 57 58 58 59 59 59
48 39 32 34 30 36 28 28 30 32 28 32 34 41 48 51 51 53 53 55 55 56 57 58 58 59 59 60 60 60 60 60 60 59 59 57 56 56 56 57 57 57 58 58
46 32 33 34 40 40 40 34 35 26 34 29 41 42 47 50 51 53 54 54 54 55 57 57 58 58 59 59 60 60 59 59 59 58 57 56 56 56 56 56 56 56 56 57
44 34 36 31 40 41 37 41 41 40 39 39 39 39 52 54 55 53 53 54 54 55 56 57 58 58 58 59 59 58 58 58 57 56 55 56 56 56 55 55 55 56 55 56
41 35 31 29 36 37 30 39 42 43 44 41 34 44 52 49 51 52 53 54 54 55 56 56 57 58 59 59 59 58 58 58 56 55 55 55 55 54 54 55 55 54 53 54
40 36 34 29 32 22 42 48 47 43 43 46 45 46 50 52 55 56 57 55 55 57 57 57 58 58 59 60 60 59 59 57 55 55 54 54 54 53 54 53 53 53 52 50
46 40 30 27 29 38 43 45 44 41 44 51 48 50 52 55 55 51 58 59 58 58 58 58 59 58 59 59 59 57 57 57 55 54 53 53 52 52 52 52 51 51 49 50
43 44 35 28 23 25 39 46 50 49 36 51 52 51 51 54 44 51 60 60 59 60 60 59 59 59 57 58 58 56 56 55 53 52 51 52 52 51 51 50 51 51 50 50
32 32 28 29 27 35 47 49 50 33 36 51 51 52 51 47 52 56 58 58 60 61 61 61 59 57 58 57 56 53 55 53 53 52 51 51 52 51 50 50 51 50 49 48
33 30 28 31 25 23 49 46 39 47 52 51 52 52 49 51 52 54 56 57 59 60 61 61 58 58 58 57 55 53 53 54 52 51 50 50 51 51 51 49 49 49 46 41
34 41 37 36 38 48 50 50 53 53 50 51 51 52 52 50 52 53 54 55 57 59 60 62 59 57 57 56 54 51 52 52 51 50 50 50 50 50 51 49 47 45 42 39
45 47 38 38 46 48 50 53 53 54 52 53 53 52 52 50 52 52 54 55 56 58 58 59 57 55 54 55 53 52 52 51 50 49 49 49 49 47 49 49 47 45 41 39
47 44 42 42 47 47 49 50 52 52 52 52 53 53 52 52 51 52 53 54 56 56 58 58 55 54 53 53 52 52 52 50 48 48 48 48 48 47 47 48 46 44 44 40
47 42 40 39 46 44 45 49 50 48 49 51 51 50 53 53 51 53 52 55 55 55 57 55 53 52 52 51 51 51 51 49 47 46 47 47 46 46 46 46 45 40 36 36
MSLP
1023.33 1022.76 1023.58 1024.09 1024.15 1024.17 1024.23 1024.37 1024.93 1025.79 1026.38 1025.70 1025.76 1026.24 1026.84 1027.14 1027.07 1026.97 1026.91 1026.82 1026.67 1026.51 1026.58 1026.68 1026.49 1026.24 1026.23 1026.12 1025.67 1025.13 1024.51 1024.01 1023.28 1022.48 1022.44 1021.76 1021.38 1020.95 1020.02 1019.59 1019.65 1020.02 1020.32 1020.35
1024.91 1025.61 1026.63 1026.49 1026.12 1025.74 1025.66 1025.65 1026.03 1026.59 1026.78 1026.08 1026.05 1026.24 1026.88 1027.36 1027.63 1027.63 1027.47 1027.32 1027.31 1027.08 1026.89 1026.90 1026.70 1026.55 1026.30 1026.32 1026.24 1025.64 1025.03 1024.54 1024.02 1023.42 1022.66 1022.76 1022.16 1021.23 1020.45 1019.49 1019.47 1019.47 1019.64 1019.85
1026.05 1028.22 1028.15 1027.67 1027.44 1027.06 1027.31 1027.24 1027.36 1027.13 1027.19 1026.84 1026.45 1026.29 1026.80 1027.52 1027.54 1027.58 1027.63 1027.67 1027.70 1027.65 1027.40 1027.25 1027.18 1027.06 1026.83 1026.62 1026.48 1026.16 1025.68 1025.02 1024.51 1024.15 1023.00 1022.20 1021.68 1021.03 1020.38 1019.83 1019.47 1018.80 1018.91 1018.97
1028.18 1029.20 1028.81 1028.48 1028.55 1028.28 1027.79 1028.90 1028.46 1027.83 1026.79 1026.01 1026.76 1024.90 1026.44 1027.24 1027.33 1027.79 1027.93 1028.01 1027.97 1027.83 1027.74 1027.71 1027.52 1027.37 1027.19 1027.16 1026.94 1026.67 1026.13 1025.53 1024.96 1024.54 1023.67 1023.13 1022.17 1021.64 1021.31 1021.18 1020.51 1019.66 1018.28 1018.46
1029.71 1029.66 1029.33 1029.29 1029.93 1029.48 1029.50 1029.49 1028.82 1028.10 1026.97 1026.60 1026.67 1025.96 1026.16 1027.35 1027.28 1027.89 1028.23 1028.40 1028.34 1028.23 1028.02 1027.86 1027.77 1027.67 1027.43 1027.44 1027.16 1026.93 1026.46 1025.83 1025.41 1024.97 1024.47 1023.78 1022.96 1022.53 1022.21 1021.36 1020.76 1020.17 1019.46 1017.32
1029.95 1030.69 1030.60 1030.62 1030.59 1030.41 1030.08 1029.50 1028.96 1028.36 1027.60 1026.60 1027.45 1027.22 1026.30 1027.10 1027.79 1027.97 1028.36 1028.43 1028.49 1028.34 1028.27 1028.07 1027.82 1027.75 1027.49 1027.38 1027.14 1026.97 1026.58 1026.06 1025.70 1025.25 1024.85 1024.37 1023.84 1022.96 1022.27 1021.77 1021.09 1020.40 1019.63 1018.92
1030.07 1030.90 1031.34 1031.35 1030.45 1030.16 1029.64 1029.40 1028.56 1027.91 1027.47 1027.31 1028.34 1027.80 1027.46 1028.35 1028.41 1028.38 1028.38 1028.37 1028.29 1028.24 1028.12 1027.95 1027.65 1027.57 1027.61 1027.43 1027.16 1026.88 1026.64 1026.19 1025.91 1025.47 1025.06 1024.55 1024.11 1023.29 1022.48 1022.14 1021.75 1020.97 1020.16 1019.19
1029.44 1030.84 1031.52 1031.96 1031.65 1031.04 1030.67 1030.28 1030.09 1029.29 1028.15 1027.87 1028.56 1027.71 1028.40 1028.46 1028.33 1028.51 1028.51 1028.10 1028.09 1028.06 1027.96 1027.91 1027.65 1027.65 1027.51 1027.42 1027.22 1027.01 1026.77 1026.26 1026.00 1025.66 1025.19 1024.68 1024.27 1023.63 1022.93 1022.39 1022.04 1021.37 1020.74 1020.06
1029.88 1031.09 1032.27 1032.50 1032.27 1032.03 1031.34 1031.36 1032.27 1031.41 1030.87 1029.55 1028.23 1028.43 1028.87 1028.29 1028.14 1028.14 1028.04 1028.14 1028.02 1028.07 1027.92 1027.90 1027.66 1027.66 1027.51 1027.36 1027.21 1027.21 1026.82 1026.42 1026.14 1025.88 1025.47 1024.94 1024.43 1023.99 1023.37 1022.80 1022.20 1021.74 1021.15 1020.36
1030.77 1031.26 1032.30 1032.67 1032.70 1032.83 1032.21 1033.18 1032.91 1032.72 1031.71 1030.04 1028.28 1028.06 1027.50 1027.97 1028.16 1028.33 1028.35 1028.30 1028.31 1028.29 1028.10 1027.96 1027.86 1027.79 1027.69 1027.36 1027.09 1027.09 1026.87 1026.57 1026.31 1026.09 1025.63 1025.13 1024.61 1024.04 1023.54 1022.93 1022.44 1021.98 1021.26 1020.52
1030.97 1031.56 1032.82 1033.08 1032.76 1032.67 1033.32 1033.30 1033.88 1033.69 1032.93 1031.25 1029.05 1026.84 1027.94 1028.35 1028.54 1028.55 1028.55 1028.54 1028.45 1028.49 1028.25 1028.09 1027.94 1027.82 1027.71 1027.41 1027.14 1026.96 1026.83 1026.56 1026.32 1026.03 1025.68 1025.26 1024.79 1024.23 1023.61 1023.05 1022.60 1022.16 1021.58 1020.76
1031.70 1032.03 1032.07 1032.61 1033.48 1033.72 1033.66 1033.64 1033.84 1033.94 1033.95 1032.59 1031.01 1028.35 1028.34 1028.77 1028.81 1028.68 1028.70 1028.67 1028.67 1028.61 1028.27 1028.06 1027.96 1027.78 1027.54 1027.40 1027.24 1026.99 1026.86 1026.56 1026.44 1026.18 1025.77 1025.42 1025.02 1024.38 1023.81 1023.26 1022.68 1022.15 1021.67 1021.03
1031.58 1032.05 1032.43 1032.83 1033.86 1034.17 1034.10 1034.58 1035.32 1035.26 1034.32 1032.43 1031.04 1027.85 1028.15 1028.46 1028.37 1028.49 1028.40 1028.49 1028.42 1028.36 1028.13 1028.06 1027.90 1027.72 1027.50 1027.37 1027.33 1027.16 1027.06 1026.97 1026.67 1026.29 1025.93 1025.55 1025.21 1024.72 1024.06 1023.48 1022.94 1022.25 1021.70 1021.16
1031.63 1031.97 1032.31 1032.37 1032.78 1033.21 1034.00 1034.52 1034.80 1034.50 1033.73 1031.76 1029.97 1028.12 1027.72 1027.63 1027.75 1027.99 1028.12 1028.17 1028.21 1028.13 1027.84 1027.71 1027.68 1027.60 1027.47 1027.41 1027.33 1027.25 1027.10 1027.02 1026.70 1026.35 1025.91 1025.58 1025.39 1025.03 1024.47 1023.81 1023.15 1022.51 1021.95 1021.31
1031.77 1032.33 1032.74 1032.79 1032.62 1032.69 1032.39 1032.93 1033.54 1033.68 1032.59 1031.65 1028.86 1027.96 1027.49 1027.45 1027.55 1027.72 1027.94 1028.00 1027.92 1027.73 1027.55 1027.42 1027.31 1027.30 1027.22 1027.13 1027.22 1027.11 1027.14 1027.09 1026.94 1026.59 1026.20 1025.83 1025.60 1025.19 1024.66 1024.09 1023.41 1022.70 1022.19 1021.66
1032.29 1032.58 1032.92 1032.65 1032.24 1032.07 1031.46 1031.24 1031.37 1031.33 1031.22 1030.20 1029.58 1028.03 1027.68 1027.37 1027.46 1027.51 1027.46 1027.48 1027.36 1027.26 1027.27 1027.18 1027.13 1027.00 1026.87 1026.84 1026.91 1027.04 1026.99 1027.01 1027.00 1026.68 1026.35 1026.04 1025.69 1025.25 1024.67 1024.17 1023.60 1022.89 1022.30 1021.74
1032.01 1032.65 1033.14 1032.40 1032.30 1031.62 1030.25 1028.68 1029.00 1029.04 1029.05 1029.03 1028.54 1026.97 1027.20 1027.13 1026.92 1026.81 1026.87 1026.88 1026.86 1026.86 1026.90 1026.91 1026.86 1026.74 1026.64 1026.61 1026.76 1026.80 1026.88 1026.85 1026.76 1026.54 1026.29 1025.97 1025.58 1025.11 1024.62 1024.17 1023.57 1022.95 1022.39 1021.99
1031.64 1032.63 1033.19 1032.61 1032.27 1030.45 1027.96 1027.88 1027.82 1027.87 1027.92 1027.81 1027.50 1027.12 1026.94 1026.44 1026.15 1026.26 1026.50 1026.40 1026.41 1026.35 1026.39 1026.57 1026.58 1026.54 1026.43 1026.39 1026.44 1026.66 1026.63 1026.52 1026.49 1026.26 1026.08 1025.84 1025.55 1025.13 1024.69 1024.16 1023.58 1023.04 1022.65 1022.34
1031.96 1032.35 1032.91 1032.65 1031.44 1029.00 1027.19 1027.35 1027.39 1027.18 1026.35 1026.54 1026.56 1026.46 1026.35 1026.21 1025.89 1026.04 1025.88 1025.66 1025.94 1025.89 1026.10 1026.32 1026.35 1026.46 1026.36 1026.21 1026.29 1026.46 1026.31 1026.10 1026.10 1025.95 1025.88 1025.71 1025.44 1025.02 1024.57 1023.95 1023.63 1023.28 1022.95 1022.30
1032.29 1032.37 1032.62 1032.63 1031.38 1028.88 1027.60 1027.64 1027.67 1027.37 1026.17 1025.83 1025.89 1025.94 1025.84 1025.69 1025.32 1024.71 1024.69 1024.98 1025.50 1025.51 1025.50 1025.67 1025.88 1025.99 1026.03 1026.01 1026.24 1026.23 1025.97 1025.94 1025.82 1025.94 1025.90 1025.66 1025.30 1024.89 1024.43 1024.04 1023.46 1023.13 1022.81 1022.14
1031.79 1032.28 1031.95 1031.70 1030.90 1028.88 1027.58 1027.59 1027.90 1027.21 1026.62 1026.25 1026.30 1026.20 1026.19 1026.00 1025.76 1025.44 1025.51 1025.37 1025.13 1024.84 1024.83 1024.89 1025.18 1025.36 1025.42 1025.76 1026.02 1025.94 1025.71 1025.62 1025.85 1025.99 1025.79 1025.43 1025.07 1024.65 1024.31 1023.84 1023.34 1022.96 1022.57 1022.19
1029.79 1030.52 1030.90 1030.98 1030.31 1028.56 1027.69 1028.12 1027.63 1026.82 1026.61 1026.87 1026.80 1026.60 1026.67 1026.53 1026.24 1025.89 1025.43 1024.93 1024.47 1024.09 1023.95 1024.01 1024.41 1024.53 1024.83 1025.36 1025.58 1025.51 1025.45 1025.60 1025.83 1025.73 1025.45 1025.00 1024.62 1024.33 1023.87 1023.49 1023.03 1022.73 1022.51 1022.33
1028.77 1028.73 1029.13 1029.31 1027.98 1027.64 1027.86 1027.52 1027.40 1027.34 1027.23 1027.05 1027.00 1026.98 1026.78 1026.47 1025.99 1025.47 1024.90 1024.54 1024.04 1023.66 1023.44 1023.21 1023.80 1023.89 1024.42 1025.01 1025.33 1025.29 1025.22 1025.50 1025.52 1025.34 1024.87 1024.51 1024.25 1023.83 1023.33 1022.93 1022.72 1022.61 1022.51 1022.13
1028.28 1028.81 1028.95 1028.87 1027.56 1027.53 1027.41 1027.63 1027.64 1027.49 1027.32 1027.21 1027.09 1026.80 1026.49 1025.88 1025.45 1024.95 1024.57 1024.06 1023.61 1023.21 1022.88 1022.93 1023.35 1023.61 1023.93 1024.51 1025.07 1025.19 1025.20 1025.26 1025.12 1024.76 1024.41 1024.14 1023.76 1023.47 1023.01 1022.63 1022.42 1022.11 1022.08 1021.85
1028.11 1028.99 1028.29 1028.07 1027.92 1028.02 1027.80 1027.91 1027.94 1027.74 1027.40 1027.00 1026.71 1026.35 1025.83 1025.41 1024.86 1024.47 1023.94 1023.42 1023.06 1022.71 1022.47 1022.56 1023.04 1023.30 1023.77 1024.31 1024.69 1024.89 1024.94 1024.96 1024.72 1024.41 1024.08 1023.68 1023.32 1023.06 1022.47 1022.12 1021.90 1021.71 1021.69 1021.63
1028.31 1028.36 1028.33 1028.08 1028.56 1029.06 1028.89 1028.78 1028.41 1027.84 1027.23 1026.69 1026.22 1025.65 1025.21 1024.83 1024.21 1023.83 1023.26 1022.82 1022.50 1022.11 1021.95 1022.37 1023.12 1023.46 1023.77 1024.10 1024.34 1024.53 1024.61 1024.68 1024.55 1024.16 1023.69 1023.28 1023.04 1022.49 1021.97 1021.43 1020.91 1020.99 1020.99 1020.77
Wind_Speed
21 16 15 15 13 11 10 9 9 7 6 2 5 7 6 6 7 9 11 13 14 14 15 16 16 16 17 17 18 18 17 18 14 11 12 6 4 9 6 8 11 13 15 15
13 20 11 9 8 9 7 8 7 4 6 3 2 6 5 5 6 8 10 11 13 15 16 18 19 18 18 18 18 19 18 17 14 12 10 6 8 7 7 9 9 12 15 14
15 7 5 8 7 8 11 8 4 4 3 3 1 6 3 4 3 6 9 10 12 13 16 17 17 18 18 19 19 17 18 18 15 17 11 11 7 6 6 4 7 10 15 16
13 7 6 7 10 6 5 6 1 2 6 2 4 2 5 2 3 8 10 11 13 14 14 14 16 17 16 16 16 18 17 16 15 17 14 16 10 11 10 7 8 13 13 15
6 9 9 8 6 8 6 4 1 2 3 7 5 6 10 3 2 5 8 11 13 14 14 15 14 14 15 15 15 16 17 16 16 16 15 13 13 11 10 10 11 11 11 13
11 4 9 5 1 5 5 4 5 4 3 4 4 7 9 2 4 3 3 9 12 14 14 13 12 12 13 14 14 14 17 17 16 16 16 15 15 15 12 13 12 9 8 8
7 7 3 7 2 1 2 4 1 3 3 3 2 6 8 3 5 7 8 9 12 15 14 14 13 11 11 14 14 14 16 16 17 16 16 15 15 15 14 12 11 14 9 10
3 7 6 6 5 4 7 5 3 4 3 2 3 2 5 6 7 7 10 12 16 16 15 14 10 10 11 12 13 14 15 16 16 17 17 15 15 11 11 13 11 10 10 9
4 6 4 7 7 5 3 4 3 1 0 5 2 3 5 2 4 7 11 15 17 15 14 12 11 9 10 11 12 12 14 15 16 16 15 15 14 15 13 15 12 10 13 12
2 5 1 3 2 9 5 4 3 2 1 4 4 5 1 3 7 10 12 12 11 12 12 12 11 9 9 10 11 11 13 14 15 15 14 14 15 15 14 13 14 14 13 14
5 1 6 3 2 2 5 4 3 1 3 3 5 2 3 2 6 10 10 10 10 10 11 12 10 9 9 9 10 11 13 14 15 15 14 15 15 15 14 14 13 14 15 14
3 2 4 3 2 2 1 3 5 3 3 3 5 5 6 1 5 6 7 7 9 9 10 11 8 8 10 8 9 11 13 14 14 14 15 14 15 15 15 15 15 15 15 15
6 2 4 6 5 3 5 3 4 3 2 9 4 2 8 4 6 6 7 7 9 10 10 9 7 8 10 9 9 10 11 13 13 14 14 14 14 15 16 16 16 16 16 15
3 4 3 3 3 4 5 7 9 6 5 5 12 13 9 10 8 9 8 8 9 11 10 9 8 8 9 8 8 9 11 12 13 14 14 14 14 14 14 15 15 15 16 15
2 3 2 6 9 10 13 10 14 15 15 10 8 12 12 11 11 12 9 10 10 11 10 10 9 8 9 9 8 8 9 11 12 13 14 13 13 14 14 14 15 15 15 15
5 2 2 4 6 11 17 17 17 20 23 24 22 26 20 16 13 12 12 11 11 11 11 11 10 11 11 10 8 8 9 10 10 11 12 13 13 13 13 14 14 14 15 15
7 5 4 3 2 9 13 18 19 18 17 15 20 22 14 14 13 11 12 11 11 12 11 11 11 11 10 8 7 9 10 10 10 11 11 12 13 14 14 14 14 14 14 15
7 7 3 2 4 6 4 2 3 11 14 15 19 18 16 15 13 11 12 12 12 13 10 10 9 11 10 8 8 8 10 10 10 11 11 12 13 13 14 14 14 14 12 14
7 7 3 4 5 13 10 5 10 9 12 9 16 17 17 16 13 14 15 12 11 11 8 9 8 8 9 8 8 9 11 10 11 11 12 12 12 13 13 14 13 13 12 13
8 8 5 3 5 5 5 3 1 2 12 3 8 12 13 12 11 11 7 6 9 10 10 9 9 8 8 8 8 10 11 11 11 11 12 12 11 12 13 13 12 11 11 13
7 6 11 9 6 8 5 7 1 6 3 2 2 5 8 10 11 14 14 14 14 13 13 11 9 9 9 7 7 10 11 11 9 10 11 12 11 12 11 12 12 11 12 12
10 9 6 7 6 8 5 2 6 8 4 6 9 10 11 14 16 18 18 18 18 18 16 14 11 10 7 7 7 10 10 8 9 10 11 11 11 11 9 13 12 12 12 12
6 6 3 9 5 3 1 10 9 10 13 16 17 16 15 18 20 21 19 20 19 20 17 13 11 10 7 7 7 9 8 8 9 11 11 11 12 12 11 12 12 11 11 10
7 5 5 3 7 9 11 13 14 15 13 15 15 19 20 21 21 20 19 17 16 17 15 13 12 11 9 7 7 8 8 9 10 11 12 11 12 11 12 9 9 9 9 10
2 5 8 11 12 9 10 8 17 18 20 20 19 20 20 21 22 21 19 19 17 17 15 12 11 9 8 7 7 8 8 9 11 11 11 11 10 12 12 11 9 10 11 9
7 7 6 4 11 10 15 19 22 20 20 21 20 21 20 19 20 20 19 18 17 16 13 10 10 8 8 7 7 8 8 9 11 11 10 9 10 10 11 11 12 6 11 14
Wind_Direction
47 80 61 60 57 80 101 106 115 87 30 305 77 97 90 69 46 41 35 30 28 26 22 14 15 15 11 12 3 1 359 359 351 353 354 344 329 325 248 245 224 217 229 229
89 59 66 69 70 91 96 106 91 98 27 275 64 107 92 57 58 43 25 35 26 18 15 14 9 12 11 12 8 1 358 359 357 352 341 330 308 284 283 251 224 222 221 225
80 79 76 78 83 102 63 51 57 26 24 80 192 157 143 86 75 28 29 26 31 26 12 9 9 9 8 11 7 3 0 358 1 354 344 340 334 330 321 332 281 225 228 222
70 68 66 83 67 334 96 15 292 233 242 82 307 98 169 77 90 41 35 27 21 16 16 11 3 4 9 9 7 1 358 2 2 356 350 347 343 337 330 318 301 318 220 227
98 72 47 61 38 351 47 321 286 209 158 188 64 252 102 211 218 33 35 27 19 14 7 5 3 358 356 1 1 359 357 360 3 0 356 347 346 346 330 324 321 327 342 247
98 87 38 34 68 14 329 179 152 172 219 206 86 325 123 35 344 285 345 3 2 2 356 348 357 352 353 352 354 357 356 359 359 359 358 353 346 337 339 340 333 337 326 317
122 64 82 18 226 331 52 202 176 204 205 34 85 274 40 313 274 291 317 325 339 342 344 333 343 348 349 352 349 349 354 354 357 356 355 355 350 340 335 344 335 334 336 340
171 161 19 7 31 8 43 11 23 284 295 4 190 237 91 306 278 275 281 302 323 329 328 326 332 335 344 353 353 350 349 349 355 354 353 349 351 348 339 341 337 327 333 325
140 107 120 57 53 314 62 59 17 136 70 260 149 134 225 15 322 311 326 323 328 331 334 325 329 336 341 353 358 351 348 349 351 352 349 348 346 348 345 340 338 335 329 326
113 122 119 98 312 58 27 89 188 76 250 260 215 252 273 20 345 342 338 343 341 342 340 341 332 333 336 345 353 352 351 350 348 349 348 346 342 342 341 341 343 337 331 328
137 241 137 193 203 150 157 152 105 129 297 291 301 153 122 35 348 344 346 348 343 340 338 334 329 333 327 337 350 353 351 348 347 347 346 343 341 340 339 340 342 341 333 334
68 81 142 87 123 290 285 197 198 247 150 263 306 291 137 85 335 338 341 348 346 340 339 338 336 330 340 339 345 351 351 348 345 342 342 341 338 338 338 336 337 340 337 332
167 147 144 163 162 181 241 171 85 101 266 223 239 253 170 205 283 299 307 328 330 329 334 335 324 327 336 332 338 346 351 347 342 340 339 339 338 337 336 336 335 336 335 335
148 178 255 311 63 115 204 184 197 198 210 238 227 273 228 277 294 303 293 299 319 317 319 319 307 313 323 321 323 334 342 345 341 339 339 338 337 335 333 332 333 336 336 331
203 213 229 259 252 243 258 217 203 209 219 230 270 267 267 281 296 302 298 296 295 306 320 321 314 313 315 318 309 321 334 337 338 332 332 336 335 329 330 332 330 333 335 332
168 218 241 268 256 261 266 258 237 229 240 246 256 272 278 281 278 276 274 279 287 302 311 321 313 310 311 315 306 322 330 333 329 330 328 329 330 330 332 330 327 331 334 335
174 169 185 253 318 300 270 247 234 235 238 239 246 253 273 276 258 260 275 280 291 298 297 310 318 316 314 309 308 307 323 326 327 327 328 328 327 328 332 329 327 332 335 334
189 170 185 277 256 240 74 168 242 243 256 249 245 259 257 265 261 289 274 268 279 290 281 300 313 317 313 308 302 315 316 319 320 322 325 326 326 323 327 327 329 331 336 332
199 186 204 259 242 300 274 202 216 219 280 229 251 253 259 260 267 276 261 259 282 288 287 289 299 303 298 300 309 306 307 316 317 322 323 324 322 319 321 323 327 326 328 320
205 232 225 190 253 267 84 113 167 248 271 23 243 253 264 278 254 264 293 308 275 267 267 267 283 292 282 285 297 298 306 316 314 327 321 317 316 313 317 319 319 322 319 317
167 205 220 219 265 278 305 181 285 253 10 20 263 284 293 275 275 301 306 286 274 275 278 267 255 268 279 277 284 293 304 309 328 315 313 311 311 313 314 312 315 318 317 318
175 175 193 202 233 254 176 165 232 15 335 317 301 295 291 292 290 287 282 280 280 278 278 251 245 259 261 270 282 293 299 319 316 313 306 307 309 311 306 312 313 316 320 315
218 216 198 203 224 69 201 293 304 307 299 299 296 296 293 290 289 287 285 286 283 280 281 263 247 256 248 255 275 287 298 305 308 303 303 307 307 305 311 308 313 315 317 311
218 203 226 202 251 272 302 303 295 298 298 302 294 290 291 289 287 281 280 278 283 282 275 265 246 245 250 257 264 275 293 299 302 300 305 306 304 317 302 311 303 304 308 307
13 172 244 265 279 313 288 319 315 309 302 297 294 291 288 289 285 283 282 277 279 284 278 257 242 241 251 259 263 276 287 296 296 298 299 299 299 307 306 303 303 304 302 300
216 250 245 278 352 326 310 317 311 305 301 297 297 293 290 288 284 283 278 276 279 277 269 235 235 240 250 250 263 278 289 295 296 295 295 300 300 297 295 300 302 279 253 261